| time (UTC) | temp F | wind direction | speed knots | gust knots | rain 1hr in | rain 24hr in | rain mn in | humidity % | barometer mb |
| 20260831004742 | 67 | 327 | 0.9 | 1.7 | 0.00 | 0.00 | 0.00 | 88 | 1020.3 |
| 20260831003742 | 67 | 325 | 2.6 | 2.6 | 0.00 | 0.00 | 0.00 | 88 | 1020.0 |
| 20260831003241 | 67 | 305 | 3.5 | 5.2 | 0.00 | 0.00 | 0.00 | 89 | 1020.0 |
| 20260831002740 | 67 | 340 | 1.7 | 2.6 | 0.00 | 0.00 | 0.00 | 89 | 1020.0 |
| 20260831002240 | 67 | 332 | 3.5 | 6.1 | 0.00 | 0.00 | 0.00 | 90 | 1020.0 |
| 20260831001839 | 67 | 324 | 0.9 | 1.7 | 0.00 | 0.00 | 0.00 | 90 | 1020.0 |
| 20260831001239 | 67 | 312 | 0.9 | 1.7 | 0.00 | 0.00 | 0.00 | 90 | 1020.0 |
| 20260831000739 | 67 | 320 | 0.9 | 1.7 | 0.00 | 0.00 | 0.00 | 89 | 1019.6 |
| 20260831000238 | 68 | 344 | 1.7 | 2.6 | 0.00 | 0.00 | 0.00 | 88 | 1019.6 |
| 20260830235737 | 68 | 313 | 2.6 | 6.1 | 0.00 | 0.00 | 0.00 | 86 | 1019.6 |
| 20260830235238 | 68 | 296 | 3.5 | 6.1 | 0.00 | 0.00 | 0.00 | 86 | 1019.6 |
| 20260830234737 | 69 | 326 | 0.9 | 0.9 | 0.00 | 0.00 | 0.00 | 85 | 1019.6 |
| 20260830234236 | 69 | 0.0 | 0.0 | 0.00 | 0.00 | 0.00 | 84 | 1019.6 | |
| 20260830233735 | 69 | 325 | 0.9 | 1.7 | 0.00 | 0.00 | 0.00 | 83 | 1019.6 |
| 20260830233237 | 70 | 331 | 2.6 | 2.6 | 0.00 | 0.00 | 0.00 | 82 | 1019.3 |
| 20260830232736 | 70 | 331 | 2.6 | 5.2 | 0.00 | 0.00 | 0.00 | 81 | 1019.3 |
| 20260830232235 | 70 | 330 | 2.6 | 4.3 | 0.00 | 0.00 | 0.00 | 80 | 1019.4 |
| 20260830231734 | 70 | 332 | 0.9 | 2.6 | 0.00 | 0.00 | 0.00 | 80 | 1019.3 |
| 20260830231236 | 70 | 334 | 0.9 | 1.7 | 0.00 | 0.00 | 0.00 | 80 | 1019.3 |
| 20260830230736 | 70 | 0.0 | 0.0 | 0.00 | 0.00 | 0.00 | 80 | 1019.3 | |
| 20260830230335 | 70 | 335 | 0.0 | 0.9 | 0.00 | 0.00 | 0.00 | 79 | 1019.3 |
| 20260830225234 | 71 | 322 | 0.9 | 1.7 | 0.00 | 0.00 | 0.00 | 80 | 1019.3 |
| 20260830224733 | 71 | 333 | 0.9 | 0.9 | 0.00 | 0.00 | 0.00 | 78 | 1019.3 |
| 20260830224233 | 71 | 329 | 1.7 | 2.6 | 0.00 | 0.00 | 0.00 | 78 | 1019.3 |
| 20260830223734 | 71 | 344 | 0.9 | 1.7 | 0.00 | 0.00 | 0.00 | 79 | 1019.3 |
| 20260830223233 | 71 | 324 | 1.7 | 2.6 | 0.00 | 0.00 | 0.00 | 77 | 1019.3 |
| 20260830222732 | 72 | 328 | 0.9 | 1.7 | 0.00 | 0.00 | 0.00 | 77 | 1019.3 |
| 20260830222231 | 72 | 327 | 1.7 | 1.7 | 0.00 | 0.00 | 0.00 | 77 | 1019.3 |
| 20260830221730 | 72 | 329 | 0.9 | 1.7 | 0.00 | 0.00 | 0.00 | 77 | 1019.3 |
| 20260830221232 | 72 | 345 | 1.7 | 2.6 | 0.00 | 0.00 | 0.00 | 78 | 1019.4 |
| 20260830220731 | 72 | 332 | 3.5 | 7.0 | 0.00 | 0.00 | 0.00 | 78 | 1019.3 |
| 20260830220231 | 73 | 322 | 2.6 | 4.3 | 0.00 | 0.00 | 0.00 | 77 | 1019.3 |
| 20260830215729 | 73 | 322 | 1.7 | 1.7 | 0.00 | 0.00 | 0.00 | 77 | 1019.3 |
| 20260830215230 | 73 | 329 | 1.7 | 2.6 | 0.00 | 0.00 | 0.00 | 76 | 1019.3 |
| 20260830214732 | 74 | 343 | 0.9 | 0.9 | 0.00 | 0.00 | 0.00 | 75 | 1019.3 |
| 20260830214229 | 75 | 335 | 2.6 | 2.6 | 0.00 | 0.00 | 0.00 | 75 | 1019.3 |
| 20260830213728 | 75 | 345 | 1.7 | 2.6 | 0.00 | 0.00 | 0.00 | 75 | 1019.3 |
| 20260830213228 | 74 | 0.0 | 0.0 | 0.00 | 0.00 | 0.00 | 77 | 1019.6 | |
| 20260830212728 | 73 | 324 | 0.0 | 0.9 | 0.00 | 0.00 | 0.00 | 77 | 1019.3 |
| 20260830212228 | 73 | 333 | 0.9 | 1.7 | 0.00 | 0.00 | 0.00 | 77 | 1019.6 |
| 20260830211727 | 73 | 332 | 0.0 | 0.9 | 0.00 | 0.00 | 0.00 | 77 | 1019.4 |
| 20260830211226 | 73 | 332 | 0.9 | 0.9 | 0.00 | 0.00 | 0.00 | 77 | 1019.6 |
| 20260830210727 | 74 | 314 | 1.7 | 2.6 | 0.00 | 0.00 | 0.00 | 76 | 1019.3 |
| 20260830210227 | 74 | 324 | 1.7 | 2.6 | 0.00 | 0.00 | 0.00 | 74 | 1019.3 |
| 20260830205726 | 75 | 318 | 0.9 | 1.7 | 0.00 | 0.00 | 0.00 | 73 | 1019.6 |
| 20260830205225 | 76 | 0.0 | 0.0 | 0.00 | 0.00 | 0.00 | 74 | 1019.6 | |
| 20260830204724 | 76 | 302 | 1.7 | 5.2 | 0.00 | 0.00 | 0.00 | 72 | 1019.6 |
| 20260830204225 | 74 | 348 | 0.9 | 1.7 | 0.00 | 0.00 | 0.00 | 76 | 1019.6 |
| 20260830203724 | 74 | 8 | 0.9 | 1.7 | 0.00 | 0.00 | 0.00 | 79 | 1019.6 |
| 20260830203224 | 74 | 325 | 0.9 | 0.9 | 0.00 | 0.00 | 0.00 | 76 | 1019.6 |
| 20260830202825 | 74 | 0.0 | 0.0 | 0.00 | 0.00 | 0.00 | 75 | 1019.6 | |
| 20260830202224 | 74 | 314 | 0.9 | 1.7 | 0.00 | 0.00 | 0.00 | 73 | 1019.6 |
| 20260830201723 | 75 | 329 | 0.9 | 0.9 | 0.00 | 0.00 | 0.00 | 77 | 1019.6 |
| 20260830201222 | 75 | 337 | 0.9 | 1.7 | 0.00 | 0.00 | 0.00 | 72 | 1019.6 |
| 20260830200721 | 75 | 344 | 1.7 | 4.3 | 0.00 | 0.00 | 0.00 | 71 | 1019.6 |
| 20260830200222 | 75 | 290 | 2.6 | 4.3 | 0.00 | 0.00 | 0.00 | 71 | 1019.6 |
| 20260830195722 | 77 | 345 | 0.9 | 0.9 | 0.00 | 0.00 | 0.00 | 71 | 1019.6 |
| 20260830195221 | 76 | 325 | 0.0 | 0.9 | 0.00 | 0.00 | 0.00 | 74 | 1019.6 |
| 20260830194722 | 75 | 271 | 2.6 | 4.3 | 0.00 | 0.00 | 0.00 | 77 | 1020.0 |
| 20260830194221 | 75 | 345 | 0.9 | 1.7 | 0.00 | 0.00 | 0.00 | 77 | 1020.0 |
| 20260830193721 | 75 | 296 | 0.9 | 1.7 | 0.00 | 0.00 | 0.00 | 76 | 1020.0 |
| 20260830193225 | 74 | 320 | 2.6 | 2.6 | 0.00 | 0.00 | 0.00 | 77 | 1020.0 |
| 20260830192822 | 75 | 301 | 1.7 | 2.6 | 0.00 | 0.00 | 0.00 | 76 | 1020.1 |
| 20260830192220 | 74 | 336 | 0.9 | 0.9 | 0.00 | 0.00 | 0.00 | 73 | 1020.0 |
| 20260830191719 | 75 | 305 | 0.9 | 1.7 | 0.00 | 0.00 | 0.00 | 73 | 1020.3 |
| 20260830191219 | 74 | 117 | 4.3 | 7.0 | 0.00 | 0.00 | 0.00 | 74 | 1020.3 |
| 20260830190720 | 75 | 138 | 4.3 | 6.1 | 0.00 | 0.00 | 0.00 | 74 | 1020.1 |
| 20260830190219 | 74 | 343 | 1.7 | 1.7 | 0.00 | 0.00 | 0.00 | 76 | 1020.3 |
| 20260830185718 | 74 | 188 | 1.7 | 4.3 | 0.00 | 0.00 | 0.00 | 78 | 1020.3 |
| 20260830185217 | 73 | 187 | 2.6 | 4.3 | 0.00 | 0.00 | 0.00 | 80 | 1020.3 |
| 20260830184718 | 73 | 286 | 3.5 | 4.3 | 0.00 | 0.00 | 0.00 | 81 | 1020.7 |
| 20260830184321 | 73 | 18 | 2.6 | 2.6 | 0.00 | 0.00 | 0.00 | 79 | 1020.7 |
| 20260830183216 | 72 | 265 | 2.6 | 4.3 | 0.00 | 0.00 | 0.00 | 83 | 1020.7 |
| 20260830182717 | 72 | 13 | 2.6 | 2.6 | 0.00 | 0.00 | 0.00 | 83 | 1020.7 |
| 20260830182347 | 71 | 207 | 2.6 | 4.3 | 0.00 | 0.00 | 0.00 | 83 | 1021.0 |
| 20260830181745 | 71 | 319 | 1.7 | 2.6 | 0.00 | 0.00 | 0.00 | 83 | 1021.0 |
| 20260830181246 | 71 | 290 | 1.7 | 2.6 | 0.00 | 0.00 | 0.00 | 84 | 1021.0 |
| 20260830180744 | 71 | 352 | 1.7 | 2.6 | 0.00 | 0.00 | 0.00 | 85 | 1021.0 |
| 20260830180245 | 71 | 352 | 1.7 | 1.7 | 0.00 | 0.00 | 0.00 | 85 | 1021.0 |
| 20260830175747 | 71 | 332 | 0.9 | 1.7 | 0.00 | 0.00 | 0.00 | 83 | 1021.0 |
| 20260830175246 | 71 | 330 | 0.9 | 0.9 | 0.00 | 0.00 | 0.00 | 84 | 1021.0 |
| 20260830174742 | 71 | 351 | 1.7 | 1.7 | 0.00 | 0.00 | 0.00 | 83 | 1021.0 |
| 20260830174244 | 71 | 92 | 2.6 | 2.6 | 0.00 | 0.00 | 0.00 | 82 | 1021.4 |
| 20260830173743 | 72 | 339 | 1.7 | 1.7 | 0.00 | 0.00 | 0.00 | 82 | 1021.4 |
| 20260830173242 | 73 | 99 | 2.6 | 2.6 | 0.00 | 0.00 | 0.00 | 81 | 1021.4 |
| 20260830172741 | 72 | 324 | 1.7 | 1.7 | 0.00 | 0.00 | 0.00 | 80 | 1021.4 |
| 20260830172243 | 72 | 312 | 0.9 | 1.7 | 0.00 | 0.00 | 0.00 | 80 | 1021.4 |
| 20260830171742 | 71 | 346 | 0.9 | 0.9 | 0.00 | 0.00 | 0.00 | 80 | 1021.4 |
| 20260830171243 | 71 | 348 | 1.7 | 2.6 | 0.00 | 0.00 | 0.00 | 81 | 1021.4 |
| 20260830170740 | 71 | 6 | 1.7 | 1.7 | 0.00 | 0.00 | 0.00 | 81 | 1021.4 |
| 20260830170241 | 71 | 19 | 1.7 | 2.6 | 0.00 | 0.00 | 0.00 | 82 | 1021.5 |
| 20260830165740 | 71 | 345 | 0.9 | 1.7 | 0.00 | 0.00 | 0.00 | 79 | 1021.7 |
| 20260830165240 | 70 | 357 | 1.7 | 1.7 | 0.00 | 0.00 | 0.00 | 85 | 1021.7 |
| 20260830164742 | 71 | 302 | 1.7 | 2.6 | 0.00 | 0.00 | 0.00 | 80 | 1021.9 |
| 20260830164240 | 71 | 325 | 0.9 | 0.9 | 0.00 | 0.00 | 0.00 | 80 | 1022.1 |
| 20260830163739 | 70 | 339 | 0.9 | 1.7 | 0.00 | 0.00 | 0.00 | 81 | 1021.7 |
| 20260830163239 | 72 | 110 | 2.6 | 2.6 | 0.00 | 0.00 | 0.00 | 78 | 1022.1 |
| 20260830162739 | 73 | 330 | 0.9 | 1.7 | 0.00 | 0.00 | 0.00 | 73 | 1021.9 |
| 20260830162238 | 72 | 284 | 1.7 | 4.3 | 0.00 | 0.00 | 0.00 | 70 | 1022.1 |
| 20260830161738 | 72 | 327 | 0.9 | 0.9 | 0.00 | 0.00 | 0.00 | 71 | 1021.7 |
| 20260830161237 | 71 | 335 | 0.0 | 0.9 | 0.00 | 0.00 | 0.00 | 78 | 1022.1 |
| 20260830160736 | 71 | 332 | 0.0 | 0.9 | 0.00 | 0.00 | 0.00 | 75 | 1022.1 |
| 20260830160237 | 70 | 325 | 1.7 | 4.3 | 0.00 | 0.00 | 0.00 | 71 | 1022.4 |
| 20260830155737 | 70 | 335 | 0.9 | 1.7 | 0.00 | 0.00 | 0.00 | 73 | 1022.4 |
| 20260830155236 | 69 | 330 | 0.0 | 0.9 | 0.00 | 0.00 | 0.00 | 74 | 1022.4 |
| 20260830154236 | 68 | 337 | 0.9 | 0.9 | 0.00 | 0.00 | 0.00 | 84 | 1022.4 |
| 20260830153735 | 68 | 357 | 0.9 | 1.7 | 0.00 | 0.00 | 0.00 | 87 | 1022.6 |
| 20260830153234 | 67 | 338 | 0.9 | 0.9 | 0.00 | 0.00 | 0.00 | 88 | 1022.8 |
| 20260830152734 | 67 | 325 | 0.9 | 0.9 | 0.00 | 0.00 | 0.00 | 88 | 1022.8 |
| 20260830152235 | 67 | 331 | 0.9 | 0.9 | 0.00 | 0.00 | 0.00 | 89 | 1022.8 |
| 20260830151734 | 66 | 307 | 0.9 | 1.7 | 0.00 | 0.00 | 0.00 | 87 | 1022.8 |
| 20260830151233 | 66 | 315 | 0.9 | 1.7 | 0.00 | 0.00 | 0.00 | 89 | 1022.8 |
| 20260830150734 | 66 | 308 | 0.9 | 1.7 | 0.00 | 0.00 | 0.00 | 90 | 1022.9 |
| 20260830150234 | 65 | 313 | 0.9 | 0.9 | 0.00 | 0.00 | 0.00 | 91 | 1022.8 |
| 20260830145733 | 65 | 326 | 1.7 | 1.7 | 0.00 | 0.00 | 0.00 | 91 | 1022.4 |
| 20260830145232 | 65 | 301 | 1.7 | 2.6 | 0.00 | 0.00 | 0.00 | 91 | 1022.6 |
| 20260830144731 | 65 | 295 | 2.6 | 2.6 | 0.00 | 0.00 | 0.00 | 89 | 1022.8 |
| 20260830144232 | 65 | 339 | 1.7 | 1.7 | 0.00 | 0.00 | 0.00 | 88 | 1022.8 |
| 20260830143731 | 66 | 4 | 1.7 | 1.7 | 0.00 | 0.00 | 0.00 | 89 | 1022.8 |
| 20260830143230 | 66 | 334 | 0.9 | 0.9 | 0.00 | 0.00 | 0.00 | 88 | 1022.8 |
| 20260830142730 | 66 | 349 | 1.7 | 2.6 | 0.00 | 0.00 | 0.00 | 87 | 1023.1 |
| 20260830142329 | 66 | 350 | 0.9 | 0.9 | 0.00 | 0.00 | 0.00 | 88 | 1022.8 |
| 20260830141730 | 66 | 293 | 2.6 | 4.3 | 0.00 | 0.00 | 0.00 | 87 | 1022.8 |
| 20260830131225 | 62 | 24 | 2.6 | 2.6 | 0.00 | 0.00 | 0.00 | 89 | 1023.1 |
| 20260830130727 | 62 | 228 | 3.5 | 4.3 | 0.00 | 0.00 | 0.00 | 89 | 1023.1 |
| 20260830130327 | 62 | 11 | 1.7 | 2.6 | 0.00 | 0.00 | 0.00 | 89 | 1023.1 |
| 20260830125725 | 61 | 325 | 1.7 | 1.7 | 0.00 | 0.00 | 0.00 | 90 | 1022.8 |
| 20260830125325 | 61 | 119 | 3.5 | 5.2 | 0.00 | 0.00 | 0.00 | 89 | 1023.1 |
| 20260830124724 | 61 | 127 | 2.6 | 4.3 | 0.00 | 0.00 | 0.00 | 90 | 1023.1 |
| 20260830124223 | 62 | 335 | 1.7 | 2.6 | 0.00 | 0.00 | 0.00 | 90 | 1023.1 |
| 20260830123725 | 61 | 228 | 2.6 | 4.3 | 0.00 | 0.00 | 0.00 | 90 | 1023.1 |
| 20260830123223 | 61 | 356 | 1.7 | 2.6 | 0.00 | 0.00 | 0.00 | 90 | 1023.1 |
| 20260830122722 | 62 | 5 | 2.6 | 2.6 | 0.00 | 0.00 | 0.00 | 89 | 1023.1 |
| 20260830122221 | 62 | 147 | 4.3 | 5.2 | 0.00 | 0.00 | 0.00 | 88 | 1023.1 |
| 20260830121726 | 63 | 191 | 3.5 | 4.3 | 0.00 | 0.00 | 0.00 | 87 | 1023.1 |
| 20260830121222 | 63 | 162 | 5.2 | 6.1 | 0.00 | 0.00 | 0.00 | 85 | 1023.1 |
| 20260830120823 | 63 | 120 | 3.5 | 5.2 | 0.00 | 0.00 | 0.00 | 85 | 1023.1 |
| 20260830120221 | 62 | 79 | 2.6 | 2.6 | 0.00 | 0.00 | 0.00 | 87 | 1023.1 |
| 20260830115721 | 61 | 344 | 1.7 | 1.7 | 0.00 | 0.00 | 0.00 | 89 | 1023.1 |
| 20260830115221 | 61 | 137 | 3.5 | 5.2 | 0.00 | 0.00 | 0.00 | 89 | 1023.1 |
| 20260830114720 | 61 | 21 | 1.7 | 4.3 | 0.00 | 0.00 | 0.00 | 90 | 1023.1 |
| 20260830114219 | 61 | 324 | 1.7 | 1.7 | 0.00 | 0.00 | 0.00 | 88 | 1023.1 |
| 20260830113722 | 60 | 346 | 1.7 | 2.6 | 0.00 | 0.00 | 0.00 | 89 | 1023.1 |
| 20260830113221 | 60 | 156 | 1.7 | 4.3 | 0.00 | 0.00 | 0.00 | 90 | 1023.5 |
| 20260830112719 | 60 | 275 | 2.6 | 2.6 | 0.00 | 0.00 | 0.00 | 88 | 1023.3 |
| 20260830112320 | 60 | 324 | 1.7 | 1.7 | 0.00 | 0.00 | 0.00 | 89 | 1023.5 |
| 20260830111218 | 58 | 293 | 1.7 | 1.7 | 0.00 | 0.00 | 0.00 | 94 | 1023.3 |
| 20260830110717 | 58 | 0.0 | 0.0 | 0.00 | 0.00 | 0.00 | 94 | 1023.3 | |
| 20260830110216 | 58 | 336 | 0.0 | 0.9 | 0.00 | 0.00 | 0.00 | 94 | 1023.5 |
| 20260830105715 | 57 | 0.0 | 0.0 | 0.00 | 0.00 | 0.00 | 94 | 1023.3 | |
| 20260830105217 | 57 | 334 | 0.9 | 0.9 | 0.00 | 0.00 | 0.00 | 95 | 1023.3 |
| 20260830104746 | 57 | 355 | 0.9 | 1.7 | 0.00 | 0.00 | 0.00 | 95 | 1023.5 |
| 20260830104245 | 56 | 336 | 0.9 | 2.6 | 0.00 | 0.00 | 0.00 | 95 | 1023.5 |
| 20260830103746 | 56 | 0.0 | 0.0 | 0.00 | 0.00 | 0.00 | 95 | 1023.3 | |
| 20260830103245 | 56 | 0.0 | 0.0 | 0.00 | 0.00 | 0.00 | 95 | 1023.1 | |
| 20260830102744 | 56 | 0.0 | 0.0 | 0.00 | 0.00 | 0.00 | 95 | 1023.1 | |
| 20260830102244 | 55 | 341 | 0.0 | 0.9 | 0.00 | 0.00 | 0.00 | 98 | 1023.1 |
| 20260830101745 | 55 | 0.0 | 0.0 | 0.00 | 0.00 | 0.00 | 97 | 1023.1 | |
| 20260830101244 | 55 | 0.0 | 0.0 | 0.00 | 0.00 | 0.00 | 97 | 1023.1 | |
| 20260830100743 | 55 | 0.0 | 0.0 | 0.00 | 0.00 | 0.00 | 97 | 1023.1 | |
| 20260830095742 | 55 | 334 | 0.9 | 0.9 | 0.00 | 0.00 | 0.00 | 97 | 1023.1 |
| 20260830095244 | 55 | 0.0 | 0.0 | 0.00 | 0.00 | 0.00 | 97 | 1023.1 | |
| 20260830094742 | 55 | 0.0 | 0.0 | 0.00 | 0.00 | 0.00 | 97 | 1023.3 | |
| 20260830094242 | 55 | 322 | 0.9 | 0.9 | 0.00 | 0.00 | 0.00 | 97 | 1023.5 |
| 20260830093741 | 55 | 0.0 | 0.0 | 0.00 | 0.00 | 0.00 | 97 | 1023.1 | |
| 20260830093242 | 55 | 0.0 | 0.0 | 0.00 | 0.00 | 0.00 | 97 | 1023.3 | |
| 20260830072233 | 55 | 0.0 | 0.0 | 0.00 | 0.00 | 0.00 | 95 | 1023.5 | |
| 20260830071732 | 55 | 0.0 | 0.0 | 0.00 | 0.00 | 0.00 | 95 | 1023.5 | |
| 20260830071231 | 55 | 0.0 | 0.0 | 0.00 | 0.00 | 0.00 | 94 | 1023.5 | |
| 20260830070732 | 55 | 0.0 | 0.0 | 0.00 | 0.00 | 0.00 | 94 | 1023.5 | |
| 20260830070231 | 55 | 0.0 | 0.0 | 0.00 | 0.00 | 0.00 | 94 | 1023.5 | |
| 20260830065731 | 56 | 324 | 0.0 | 0.9 | 0.00 | 0.00 | 0.00 | 93 | 1023.3 |
| 20260830065230 | 56 | 0.0 | 0.0 | 0.00 | 0.00 | 0.00 | 93 | 1023.5 | |
| 20260830064731 | 56 | 0.0 | 0.0 | 0.00 | 0.00 | 0.00 | 93 | 1023.5 | |
| 20260830064230 | 56 | 0.0 | 0.0 | 0.00 | 0.00 | 0.00 | 93 | 1023.5 | |
| 20260830063729 | 56 | 0.0 | 0.0 | 0.00 | 0.00 | 0.00 | 93 | 1023.8 | |
| 20260830063229 | 56 | 0.0 | 0.0 | 0.00 | 0.00 | 0.00 | 92 | 1023.5 | |
| 20260830062730 | 56 | 0.0 | 0.0 | 0.00 | 0.00 | 0.00 | 92 | 1023.3 | |
| 20260830062229 | 56 | 0.0 | 0.0 | 0.00 | 0.00 | 0.00 | 91 | 1023.5 | |
| 20260830061728 | 57 | 0.0 | 0.0 | 0.00 | 0.00 | 0.00 | 91 | 1023.5 | |
| 20260830060827 | 57 | 322 | 0.9 | 0.9 | 0.00 | 0.00 | 0.00 | 90 | 1023.5 |
| 20260830060227 | 57 | 324 | 0.9 | 0.9 | 0.00 | 0.00 | 0.00 | 91 | 1023.8 |
| 20260830055828 | 57 | 327 | 0.9 | 0.9 | 0.00 | 0.00 | 0.00 | 91 | 1023.8 |
| 20260830055226 | 57 | 327 | 0.0 | 0.9 | 0.00 | 0.00 | 0.00 | 90 | 1023.6 |
| 20260830054827 | 56 | 0.0 | 0.0 | 0.00 | 0.00 | 0.00 | 90 | 1023.8 | |
| 20260830054227 | 56 | 327 | 0.0 | 0.9 | 0.00 | 0.00 | 0.00 | 91 | 1023.8 |
| 20260830053826 | 56 | 332 | 0.9 | 0.9 | 0.00 | 0.00 | 0.00 | 91 | 1024.0 |
| 20260830053225 | 56 | 324 | 0.9 | 0.9 | 0.00 | 0.00 | 0.00 | 91 | 1023.8 |
| 20260830052826 | 56 | 324 | 0.9 | 0.9 | 0.00 | 0.00 | 0.00 | 90 | 1023.8 |
| 20260830051223 | 57 | 325 | 1.7 | 1.7 | 0.00 | 0.00 | 0.00 | 89 | 1023.8 |
| 20260830050724 | 57 | 327 | 0.9 | 0.9 | 0.00 | 0.00 | 0.00 | 90 | 1024.2 |
| 20260830050223 | 56 | 324 | 0.9 | 0.9 | 0.00 | 0.00 | 0.00 | 90 | 1024.0 |
| 20260830045723 | 56 | 322 | 0.9 | 0.9 | 0.00 | 0.00 | 0.00 | 89 | 1023.8 |
| 20260830045227 | 56 | 319 | 1.7 | 1.7 | 0.00 | 0.00 | 0.00 | 90 | 1024.2 |
| 20260830044823 | 56 | 326 | 0.9 | 1.7 | 0.00 | 0.00 | 0.00 | 90 | 1024.2 |
| 20260830043722 | 56 | 319 | 1.7 | 1.7 | 0.00 | 0.00 | 0.00 | 91 | 1024.2 |
| 20260830043223 | 56 | 323 | 0.9 | 1.7 | 0.00 | 0.00 | 0.00 | 90 | 1024.2 |
| 20260830042723 | 55 | 321 | 0.9 | 1.7 | 0.00 | 0.00 | 0.00 | 90 | 1024.2 |
| 20260830042224 | 56 | 324 | 0.9 | 0.9 | 0.00 | 0.00 | 0.00 | 90 | 1024.2 |
| 20260830041720 | 56 | 324 | 0.9 | 0.9 | 0.00 | 0.00 | 0.00 | 90 | 1024.0 |
| 20260830041219 | 55 | 324 | 0.9 | 0.9 | 0.00 | 0.00 | 0.00 | 90 | 1024.0 |
| 20260830040719 | 55 | 325 | 0.0 | 0.9 | 0.00 | 0.00 | 0.00 | 90 | 1023.8 |
| 20260830040218 | 55 | 322 | 0.9 | 0.9 | 0.00 | 0.00 | 0.00 | 89 | 1024.2 |
| 20260830035719 | 55 | 323 | 0.9 | 0.9 | 0.00 | 0.00 | 0.00 | 89 | 1024.0 |
| 20260830035218 | 56 | 324 | 0.9 | 0.9 | 0.00 | 0.00 | 0.00 | 89 | 1024.2 |
| 20260830034717 | 56 | 323 | 0.9 | 0.9 | 0.00 | 0.00 | 0.00 | 88 | 1024.2 |
| 20260830034217 | 56 | 321 | 0.9 | 1.7 | 0.00 | 0.00 | 0.00 | 88 | 1024.2 |
| 20260830033718 | 56 | 321 | 0.9 | 1.7 | 0.00 | 0.00 | 0.00 | 88 | 1023.8 |
| 20260830033217 | 56 | 325 | 0.9 | 0.9 | 0.00 | 0.00 | 0.00 | 88 | 1024.2 |
| 20260830032716 | 56 | 331 | 1.7 | 1.7 | 0.00 | 0.00 | 0.00 | 88 | 1024.2 |
| 20260830032215 | 56 | 325 | 0.9 | 0.9 | 0.00 | 0.00 | 0.00 | 88 | 1024.2 |
| 20260830031747 | 57 | 327 | 0.0 | 0.9 | 0.00 | 0.00 | 0.00 | 88 | 1024.2 |
| 20260830031246 | 57 | 325 | 0.0 | 0.9 | 0.00 | 0.00 | 0.00 | 86 | 1024.2 |
| 20260830030750 | 57 | 323 | 0.9 | 0.9 | 0.00 | 0.00 | 0.00 | 87 | 1024.2 |
| 20260830030244 | 57 | 322 | 0.9 | 0.9 | 0.00 | 0.00 | 0.00 | 87 | 1024.2 |
| 20260830025745 | 57 | 322 | 0.9 | 0.9 | 0.00 | 0.00 | 0.00 | 86 | 1024.2 |
| 20260830025244 | 57 | 324 | 0.9 | 0.9 | 0.00 | 0.00 | 0.00 | 86 | 1024.2 |
| 20260830024744 | 57 | 326 | 0.9 | 0.9 | 0.00 | 0.00 | 0.00 | 86 | 1024.2 |
| 20260830024246 | 57 | 324 | 0.9 | 0.9 | 0.00 | 0.00 | 0.00 | 86 | 1024.2 |
| 20260830023744 | 58 | 328 | 0.0 | 0.9 | 0.00 | 0.00 | 0.00 | 85 | 1024.2 |
| 20260830023243 | 58 | 324 | 0.9 | 0.9 | 0.00 | 0.00 | 0.00 | 85 | 1024.2 |
| 20260830022843 | 58 | 322 | 0.9 | 0.9 | 0.00 | 0.00 | 0.00 | 85 | 1024.2 |
| 20260830022243 | 58 | 329 | 0.0 | 0.9 | 0.00 | 0.00 | 0.00 | 85 | 1024.2 |
| 20260830021243 | 58 | 321 | 0.0 | 0.9 | 0.00 | 0.00 | 0.00 | 86 | 1024.2 |
| 20260830015240 | 58 | 324 | 0.9 | 0.9 | 0.00 | 0.00 | 0.00 | 86 | 1024.2 |
| 20260830014740 | 58 | 327 | 0.9 | 0.9 | 0.00 | 0.00 | 0.00 | 86 | 1024.2 |
| 20260830013741 | 58 | 0.0 | 0.0 | 0.00 | 0.00 | 0.00 | 86 | 1024.2 | |
| 20260830013239 | 58 | 325 | 0.0 | 0.9 | 0.00 | 0.00 | 0.00 | 85 | 1024.2 |
| 20260830012738 | 58 | 0.0 | 0.0 | 0.00 | 0.00 | 0.00 | 85 | 1024.2 | |
| 20260830012239 | 58 | 330 | 0.0 | 0.9 | 0.00 | 0.00 | 0.00 | 85 | 1024.2 |
| 20260830011739 | 58 | 325 | 0.9 | 0.9 | 0.00 | 0.00 | 0.00 | 85 | 1024.2 |
| 20260830011238 | 58 | 326 | 0.9 | 0.9 | 0.00 | 0.00 | 0.00 | 86 | 1024.2 |
| 20260830010837 | 58 | 325 | 0.9 | 0.9 | 0.00 | 0.00 | 0.00 | 85 | 1024.2 |
| 20260830010241 | 59 | 324 | 0.9 | 0.9 | 0.00 | 0.00 | 0.00 | 86 | 1024.2 |
| 20260830005737 | 59 | 326 | 0.9 | 0.9 | 0.00 | 0.00 | 0.00 | 86 | 1024.2 |
| 20260830005237 | 59 | 328 | 0.0 | 0.9 | 0.00 | 0.00 | 0.00 | 86 | 1024.2 |